TimeCDT,TemperatureF,Dew PointF,Humidity,Sea Level PressureIn,VisibilityMPH,Wind Direction,Wind SpeedMPH,Gust SpeedMPH,PrecipitationIn,Events,Conditions,WindDirDegrees,DateUTC
12:15 AM,22.8,12.6,65,30.07,10.0,NW,10.4,17.3,N/A,,Scattered Clouds,310,2013-04-01 05:15:00
12:35 AM,22.3,12.2,65,30.08,10.0,NW,11.5,-,N/A,,Scattered Clouds,310,2013-04-01 05:35:00
12:55 AM,21.9,11.8,65,30.08,10.0,NW,10.4,18.4,N/A,,Clear,320,2013-04-01 05:55:00
1:15 AM,21.4,11.5,66,30.09,10.0,NW,11.5,-,N/A,,Clear,320,2013-04-01 06:15:00
1:35 AM,21.2,11.5,66,30.09,10.0,NW,10.4,16.1,N/A,,Clear,320,2013-04-01 06:35:00
1:55 AM,20.7,11.3,67,30.10,10.0,NW,9.2,16.1,N/A,,Clear,310,2013-04-01 06:55:00
2:15 AM,20.3,11.1,68,30.10,10.0,NW,9.2,16.1,N/A,,Clear,320,2013-04-01 07:15:00
2:35 AM,19.9,10.9,68,30.11,10.0,NW,10.4,-,N/A,,Clear,310,2013-04-01 07:35:00
2:55 AM,19.4,10.4,68,30.11,10.0,NW,6.9,-,N/A,,Clear,320,2013-04-01 07:55:00
3:15 AM,19.2,10.6,69,30.11,10.0,NW,8.1,-,N/A,,Clear,310,2013-04-01 08:15:00
3:35 AM,18.9,10.4,70,30.11,10.0,NW,8.1,-,N/A,,Clear,310,2013-04-01 08:35:00
3:55 AM,18.5,10.4,71,30.12,10.0,NW,6.9,-,N/A,,Clear,310,2013-04-01 08:55:00
4:15 AM,18.3,10.2,71,30.13,10.0,NW,6.9,-,N/A,,Clear,310,2013-04-01 09:15:00
4:35 AM,18.0,9.7,70,30.13,10.0,NW,5.8,-,N/A,,Clear,310,2013-04-01 09:35:00
4:56 AM,17.6,9.9,72,30.14,10.0,NW,8.1,-,N/A,,Clear,310,2013-04-01 09:56:00
5:15 AM,17.4,9.5,71,30.15,10.0,WNW,8.1,-,N/A,,Clear,300,2013-04-01 10:15:00
5:35 AM,16.5,9.5,74,30.15,10.0,WNW,6.9,-,N/A,,Clear,300,2013-04-01 10:35:00
5:56 AM,16.2,9.7,76,30.16,10.0,WNW,8.1,-,N/A,,Clear,300,2013-04-01 10:56:00
6:15 AM,16.3,9.5,74,30.16,10.0,WNW,6.9,-,N/A,,Clear,300,2013-04-01 11:15:00
6:35 AM,16.5,9.5,74,30.17,10.0,NW,5.8,-,N/A,,Clear,310,2013-04-01 11:35:00
6:56 AM,16.2,9.3,74,30.18,10.0,NW,5.8,-,N/A,,Clear,310,2013-04-01 11:56:00
7:15 AM,15.8,9.3,76,30.18,10.0,WNW,8.1,-,N/A,,Scattered Clouds,300,2013-04-01 12:15:00
7:35 AM,16.5,9.5,74,30.19,10.0,WNW,6.9,-,N/A,,Clear,300,2013-04-01 12:35:00
7:56 AM,17.2,10.2,74,30.19,10.0,NW,6.9,-,N/A,,Clear,310,2013-04-01 12:56:00
8:15 AM,17.8,10.0,72,30.20,10.0,NW,8.1,-,N/A,,Clear,320,2013-04-01 13:15:00
8:35 AM,18.5,10.4,71,30.20,10.0,NW,9.2,-,N/A,,Clear,310,2013-04-01 13:35:00
8:56 AM,19.2,10.4,69,30.21,10.0,NW,10.4,-,N/A,,Clear,310,2013-04-01 13:56:00
9:15 AM,20.1,10.4,66,30.21,10.0,NW,8.1,-,N/A,,Clear,310,2013-04-01 14:15:00
9:35 AM,21.0,10.9,65,30.21,10.0,NW,8.1,-,N/A,,Clear,310,2013-04-01 14:35:00
9:55 AM,22.1,11.8,65,30.22,10.0,WNW,6.9,-,N/A,,Clear,300,2013-04-01 14:55:00
10:15 AM,23.0,11.8,62,30.22,10.0,NW,6.9,-,N/A,,Clear,320,2013-04-01 15:15:00
10:35 AM,23.5,11.3,60,30.22,10.0,NW,8.1,18.4,N/A,,Clear,320,2013-04-01 15:35:00
10:55 AM,24.4,11.8,59,30.22,10.0,WNW,11.5,-,N/A,,Clear,300,2013-04-01 15:55:00
11:15 AM,25.3,12.4,58,30.22,10.0,WNW,11.5,17.3,N/A,,Clear,290,2013-04-01 16:15:00
11:35 AM,25.5,11.7,56,30.23,10.0,NW,10.4,-,N/A,,Clear,310,2013-04-01 16:35:00
11:56 AM,26.4,11.7,54,30.22,10.0,WNW,10.4,18.4,N/A,,Clear,290,2013-04-01 16:56:00
12:15 PM,27.5,12.4,53,30.22,10.0,WNW,12.7,17.3,N/A,,Clear,290,2013-04-01 17:15:00
12:35 PM,28.2,12.0,51,30.22,10.0,West,12.7,18.4,N/A,,Clear,280,2013-04-01 17:35:00
12:55 PM,28.2,11.1,49,30.22,10.0,NW,6.9,11.5,N/A,,Clear,310,2013-04-01 17:55:00
1:15 PM,29.1,11.8,49,30.22,10.0,WNW,12.7,17.3,N/A,,Clear,300,2013-04-01 18:15:00
1:35 PM,29.5,11.7,48,30.21,10.0,WNW,15.0,18.4,N/A,,Clear,300,2013-04-01 18:35:00
1:55 PM,29.7,10.4,45,30.21,10.0,WNW,12.7,17.3,N/A,,Clear,290,2013-04-01 18:55:00
2:15 PM,30.2,9.3,42,30.21,10.0,NW,10.4,23.0,N/A,,Clear,310,2013-04-01 19:15:00
2:36 PM,31.1,11.3,44,30.21,10.0,NW,9.2,18.4,N/A,,Clear,310,2013-04-01 19:36:00
2:55 PM,31.8,10.6,41,30.20,10.0,NW,11.5,17.3,N/A,,Clear,320,2013-04-01 19:55:00
3:15 PM,32.0,10.8,41,30.20,10.0,WNW,12.7,19.6,N/A,,Clear,290,2013-04-01 20:15:00
3:35 PM,32.2,11.5,42,30.20,10.0,WNW,13.8,21.9,N/A,,Clear,300,2013-04-01 20:35:00
3:55 PM,32.7,11.8,42,30.19,10.0,WNW,13.8,20.7,N/A,,Clear,290,2013-04-01 20:55:00
4:15 PM,32.9,11.7,41,30.19,10.0,WNW,13.8,19.6,N/A,,Clear,300,2013-04-01 21:15:00
4:35 PM,32.5,9.9,39,30.19,10.0,WNW,15.0,19.6,N/A,,Clear,290,2013-04-01 21:35:00
4:56 PM,33.1,11.1,40,30.19,10.0,NW,11.5,20.7,N/A,,Clear,320,2013-04-01 21:56:00
5:15 PM,33.3,10.2,38,30.19,10.0,NW,13.8,23.0,N/A,,Clear,310,2013-04-01 22:15:00
5:35 PM,33.3,9.5,37,30.19,10.0,WNW,11.5,17.3,N/A,,Clear,300,2013-04-01 22:35:00
5:56 PM,33.3,9.9,38,30.19,10.0,WNW,12.7,18.4,N/A,,Clear,300,2013-04-01 22:56:00
6:15 PM,32.9,9.7,38,30.19,10.0,WNW,11.5,16.1,N/A,,Clear,300,2013-04-01 23:15:00
6:35 PM,32.4,12.0,43,30.18,10.0,WNW,12.7,19.6,N/A,,Clear,290,2013-04-01 23:35:00
6:56 PM,32.0,12.6,45,30.18,10.0,WNW,10.4,-,N/A,,Clear,290,2013-04-01 23:56:00
7:15 PM,30.9,14.4,50,30.18,10.0,West,6.9,-,N/A,,Clear,270,2013-04-02 00:15:00
7:35 PM,29.7,15.4,55,30.18,10.0,West,8.1,-,N/A,,Clear,270,2013-04-02 00:35:00
7:55 PM,28.8,14.9,56,30.18,10.0,West,8.1,-,N/A,,Clear,260,2013-04-02 00:55:00
8:15 PM,27.9,15.3,59,30.18,10.0,West,6.9,-,N/A,,Clear,270,2013-04-02 01:15:00
8:36 PM,27.5,15.1,60,30.19,10.0,West,6.9,-,N/A,,Clear,260,2013-04-02 01:36:00
8:55 PM,26.6,15.3,62,30.19,10.0,West,8.1,-,N/A,,Clear,260,2013-04-02 01:55:00
9:16 PM,25.7,15.4,65,30.20,10.0,West,6.9,-,N/A,,Clear,270,2013-04-02 02:16:00
9:35 PM,25.5,15.4,66,30.21,10.0,West,6.9,-,N/A,,Clear,260,2013-04-02 02:35:00
9:55 PM,25.5,14.9,64,30.21,10.0,West,9.2,-,N/A,,Clear,270,2013-04-02 02:55:00
10:15 PM,24.6,15.3,68,30.22,10.0,West,9.2,-,N/A,,Clear,270,2013-04-02 03:15:00
10:35 PM,23.9,14.9,69,30.22,10.0,West,8.1,-,N/A,,Clear,270,2013-04-02 03:35:00
10:56 PM,23.5,14.4,68,30.21,10.0,West,9.2,-,N/A,,Clear,270,2013-04-02 03:56:00
11:15 PM,23.0,14.0,68,30.22,10.0,West,9.2,-,N/A,,Clear,270,2013-04-02 04:15:00
11:35 PM,22.8,13.6,68,30.22,10.0,West,9.2,-,N/A,,Clear,270,2013-04-02 04:35:00
11:55 PM,21.9,13.1,69,30.22,10.0,West,6.9,-,N/A,,Clear,280,2013-04-02 04:55:00